www.pogodaiklimat.ru
ПОГОДА в Филадельфии
Время
и дата
07:35 06.02
07:55 06.02
08:15 06.02
08:35 06.02
08:55 06.02
09:15 06.02
09:35 06.02
09:55 06.02
10:15 06.02
10:35 06.02
10:55 06.02
11:15 06.02
11:35 06.02
11:55 06.02
12:15 06.02
12:35 06.02
12:55 06.02
13:15 06.02
13:35 06.02
13:55 06.02
14:15 06.02
14:35 06.02
14:55 06.02
15:15 06.02
15:35 06.02
15:55 06.02
16:15 06.02
16:35 06.02
16:55 06.02
17:15 06.02
17:35 06.02
17:55 06.02
18:15 06.02
18:35 06.02
18:55 06.02
19:15 06.02
19:35 06.02
19:55 06.02
20:15 06.02
20:35 06.02
20:55 06.02
21:15 06.02
21:35 06.02
21:55 06.02
22:15 06.02
22:35 06.02
22:55 06.02
23:15 06.02
Ветер
(напр.,м/с)
Видим. Явления Облачность Т
(С)
Тd
(С)
f
(%)
Тe
(С)
Тes
(С)
Комфортность P
(гПа)
Po
(гПа)
Тmin
(С)
Tmax
(С)
R
(мм)
R24
(мм)
S
(см)
штиль 0 16 км 10/0 2700 m
[Ac]
-1.1 -1.6 96 -2 -2 1003.8
штиль 0 16 км 10/0 2700 m
[Ac]
-0.5 -1.3 94 -2 -2 1004.1
СЗ 2 16 км 5/0 2700 m
[Ac]
-0.4 -2.0 89 -4 -4 1004.1
СЗ 2 16 км ясно +2.2 -2.1 73 -1 0 1004.4
СЗ 3 16 км ясно +4.8 -1.8 62 +2 +2 1004.8
СЗ 3 16 км 8/8 1500 м +6.7 -1.6 55 +4 +5 1005.1
СЗ 4 16 км 5/5 1500 м +7.7 -1.3 53 +5 +6 1005.1
С 4 16 км 8/8 1950 м +8.8 -0.9 51 +6 +7 1005.1
СЗ 4 16 км 10/10 1950 м +8.6 -0.8 52 +6 +6 1005.8
С 7
{9}
16 км 10/10 1950 м +8.0 -1.0 53 +4 +4 1005.8
С 4 16 км 10/10 1950 м +8.6 -0.7 52 +6 +6 1006.1
С 4
{8}
16 км 10/10 1950 м +8.6 -0.8 52 +6 +6 1006.1
С 5
{9}
16 км 8/8 1950 м +9.0 -0.5 51 +6 +7 1006.1
С 6
{10}
16 км 8/8 1320 м +8.8 -0.9 51 +5 +6 1006.1
СЗ 7
{11}
16 км 10/10 1320 м +8.5 -1.3 50 +5 +5 1006.1
СЗ 5
{10}
16 км 10/10 1320 м +8.2 -1.4 51 +5 +5 1006.4
С 6
{10}
16 км 10/10 1260 м +8.2 -1.1 52 +5 +5 1006.4 -1.2 +9.3
СЗ 7
{10}
16 км 10/10 1260 м +8.1 -1.3 51 +4 +4 1006.1
СЗ 6
{10}
16 км 10/10 1260 м +7.7 -1.2 53 +4 +4 1006.4
С 7
{9}
16 км 10/10 1140 м +7.2 -1.2 55 +3 +3 1006.4
СЗ 5
{8}
16 км 10/10 1080 м +6.7 -1.0 58 +3 +3 1006.8
С 5
{10}
16 км 10/10 1080 м +6.4 -1.0 59 +3 +3 1007.1
С 5
{9}
16 км 10/10 1020 м +6.4 -0.9 60 +3 +3 1007.1
СЗ 5
{8}
16 км 10/10 1020 м +6.4 -1.1 59 +3 +3 1007.1
СЗ 4
{8}
16 км 10/10 1080 м +6.3 -0.9 60 +3 +3 1007.1
СЗ 3 16 км 10/10 1080 м +6.1 -1.1 60 +3 +3 1007.4
С 6
{9}
16 км 10/10 1080 м +6.0 -1.2 60 +2 +2 1007.8
СЗ 4
{9}
16 км 10/10 1080 м +5.8 -1.3 60 +2 +2 1008.1
СЗ 3
{8}
16 км 10/10 1080 м +5.6 -1.3 61 +3 +3 1008.4
СЗ 3
{8}
16 км 10/10 1020 м +5.3 -1.5 61 +2 +2 1009.1
С 4
{7}
16 км 10/10 1020 м +5.2 -1.4 62 +2 +2 1009.5
СЗ 3
{8}
16 км 10/10 1020 м +5.0 -1.4 63 +2 +2 1009.8
С 5
{8}
16 км 10/10 1020 м +4.8 -1.4 64 0 0 1010.1
С 3 16 км 10/10 1020 м +4.6 -1.4 65 +1 +1 1010.5
С 3 16 км 10/10 1020 м +4.4 -1.4 66 +1 +1 1010.8 +4.4 +8.4
СЗ 3 16 км 10/10 1020 м +4.3 -1.5 66 +1 +1 1011.1
СЗ 2 16 км 10/10 1020 м +4.3 -1.6 65 +2 +2 1011.5
СЗ 2 16 км 10/10 1020 м +4.1 -1.8 65 +2 +2 1011.8
СЗ 2 16 км 10/10 1020 м +3.8 -1.9 66 +1 +1 1012.1
СЗ 4 16 км 10/10 1020 м +3.5 -2.1 67 -1 -1 1012.5
СЗ 4 16 км 5/5 1020 м +3.0 -2.4 68 -1 -1 1012.5
СЗ 3 16 км ясно +2.6 -2.7 68 -1 -1 1012.8
СЗ 3 16 км ясно +2.3 -2.7 70 -2 -2 1012.8
СЗ 3 16 км ясно +1.9 -2.9 70 -2 -2 1012.8
СЗ 3 16 км ясно +1.6 -3.2 70 -2 -2 1013.1
СЗ 3 16 км ясно +1.3 -3.5 70 -3 -3 1013.5
СЗ 3 16 км ясно +1.1 -3.7 70 -3 -3 1013.8
СЗ 3 16 км ясно +0.9 -3.9 70 -3 -3 1014.1
Местоположение метеостанции Wings Field Airport: широта 40.1375 долгота -75.2650 высота над уровнем моря 92 м.
В архиве по умолчанию представлена погода в Филадельфии за последние 1-2 суток. Обновление информации о фактической погоде в базе происходит ежечасно! Архивные данные за месяц целиком и за предыдущие месяцы Вы можете получить, выбрав интересующий диапазон дат из раскрывающегося списка и нажав кнопку "Ввод!".
Внимание! Архив погоды МЕТАР в базе сайта по станциям, не включенным в климатический монитор, хранится не более 60 дней. Нет смысла пытаться выбрать более раннюю дату.
*Определитесь, кто Вы:
Внимание! Время в таблицах - местное (без учета летнего времени). Для получения всемирного времени необходимо вычесть поправку, которая равна -5 ч.
Смотрите также архив погоды в соседних городах и на ближайших метеорологических станциях:
Партнеры нашего сайта:      
Пояснения к столбцам:
  • Ветер - указаны скорость ветра в м/с - средняя за 10 мин, порывы в срок и между сроками (в фигурных скобках) и направление, откуда дует ветер: С - северный,
  • СВ - северо-восточный, В - восточный, ЮВ - юго-восточный, Ю - южный, ЮЗ - юго-западный, З - западный, СЗ - северо-западный.
  • Видимость - горизонтальная дальность видимости в метрах или километрах. При видимости от 1 до 10 км при отсутствии осадков обычно наблюдается дымка, при ухудшении видимости до 1 км и менее - туман. В сухую погоду видимость может ухудшаться дымом, пылью или мглою.
  • Явления - указаны атмосферные явления, наблюдавшиеся в срок или в последний час перед сроком; фигурными скобками обозначены явления, наблюдавшиеся между сроками (за 1-3 часа до срока); квадратными скобками обозначены град или гололедные отложения с указанием их диаметра в мм.
  • Облачность - указаны через наклонную черту общая и нижняя облачность в баллах и высота нижней границы облаков в метрах; квадратными скобками обозначены формы облаков: Ci - перистые, Cs - перисто-слоистые, Cc - перисто-кучевые, Ac - высококучевые, As - высокослоистые, Sc - слоисто-кучевые, Ns - слоисто-дождевые, Cu - кучевые, Cb - кучево-дождевые. Подробнее классификацию облаков см. в Атласе облаков (PDF).
  • T - Температура воздуха - температура, измеренная на высоте 2 м над землей.
  • Td - Температура точки росы - температура, при понижении до которой содержащийся в воздухе водяной пар достигнет насыщения.
  • f - Относительная влажность воздуха - влажноcть воздуха, измеренная на высоте 2 м над землей.
  • Te - Эффективная температура - температура, которую ощущает одетый по сезону человек в тени. Характеристика душности погоды. При расчете учитывается влияние влажности воздуха и скорости ветра на теплоощущения человека.
  • Tes - Эффективная температура на солнце - температура, которую ощущает человек, с поправкой на солнечный нагрев. Характеристика знойности погоды. Зависит от высоты солнца над горизонтом, облачности и скорости ветра. Ночью, в пасмурную погоду, а также при ветре 12 м/с и более поправка равна нулю.
  • P - Атмосферное давление - приведенное к уровню моря атмосферное давление.
  • Po - Атмосферное давление - измеренное на уровне метеостанции атмосферное давление.
  • Tmin - Минимальная температура - минимум температуры воздуха на высоте 2 м над землей.
  • Tmax - Максимальная температура - максимум температуры воздуха на высоте 2 м над землей.
  • R - Количество осадков - Количество выпавших осадков за период времени, мм. При наведении курсора мыши на число - период времени, за который выпало указанное количество осадков.
  • R24 - Количество осадков - Количество выпавших осадков за 24 часа, мм.
  • S - Снежный покров - Высота снежного покрова, см. При наведении курсора мыши на число - состояние снежного покрова и степень покрытия местности в баллах.